Wind_Speed
7 8 7 6 5 4 3 2 2 1 1 2 2 2 3 4 5 6 7 8 9 9 10 9 9 9 9 10 10 11 11 12 12 13 15 16 16 17 18 19 20 21 21
7 8 7 6 5 4 3 2 2 1 0 1 2 2 3 4 6 7 8 9 10 11 11 11 10 10 10 10 11 11 11 11 12 13 14 15 16 17 18 19 20 21 22
9 10 8 7 6 5 4 3 2 1 0 1 2 3 4 5 6 8 9 10 11 11 11 12 12 12 12 12 12 13 13 13 13 14 14 16 16 17 18 19 20 21 22
9 9 8 8 6 4 3 2 1 1 1 2 3 4 5 6 7 8 10 11 12 13 13 13 13 14 14 14 15 15 16 16 16 15 16 16 17 17 18 19 20 21 22
8 8 8 6 5 3 3 2 1 1 2 3 4 4 6 7 8 9 11 12 13 14 14 15 16 16 16 16 16 17 18 18 19 18 18 18 19 19 20 20 21 22 22
8 7 6 5 3 2 2 2 2 2 3 3 4 5 7 8 9 11 12 12 13 14 15 16 17 17 17 18 18 18 19 20 20 21 21 22 22 22 22 23 24 24 24
5 5 4 3 2 2 3 3 3 3 4 4 5 7 8 9 11 12 12 13 14 15 16 16 17 17 18 19 19 20 21 21 22 23 24 25 26 26 26 27 27 27 28
2 2 1 2 2 3 4 4 4 4 5 5 7 8 9 11 12 13 13 14 14 15 16 16 17 18 19 21 22 23 24 24 25 25 26 26 27 28 29 30 30 31 32
2 2 2 2 3 4 4 5 5 6 6 7 9 10 11 12 13 14 14 15 15 16 17 17 18 20 21 22 23 25 26 26 27 28 28 29 29 30 31 31 32 32 33
2 3 4 4 5 5 6 6 7 7 8 9 11 12 13 14 15 16 17 17 18 19 20 20 21 22 23 24 26 28 29 29 30 30 31 31 32 32 33 33 34 34 35
2 4 4 5 6 6 7 7 8 9 10 11 13 14 15 16 18 18 19 20 21 22 23 24 25 25 26 27 29 30 32 32 33 33 33 33 34 34 35 35 35 36 36
4 4 4 5 6 7 8 9 10 11 13 14 16 17 18 19 20 21 21 22 23 24 25 25 26 28 28 29 30 31 34 35 35 34 34 35 35 36 36 35 35 35 36
8 7 7 7 7 8 10 11 13 14 15 17 19 20 21 22 22 23 23 24 24 25 26 27 28 29 30 32 33 34 36 37 36 36 36 36 36 36 36 35 35 35 35
10 10 10 10 10 11 12 13 15 17 18 20 21 22 23 24 25 25 25 26 27 28 29 30 31 32 33 34 35 36 37 37 37 37 38 38 37 37 36 35 35 35 34
11 11 11 12 13 14 15 16 17 19 20 22 24 25 26 27 27 28 28 28 29 30 31 31 32 34 35 36 36 37 38 38 39 39 39 39 39 38 37 36 35 35 34
13 12 12 13 15 16 17 19 20 21 23 24 26 27 28 29 30 30 30 31 31 32 33 34 34 36 36 36 37 37 37 38 39 39 40 39 39 38 37 36 36 35 34
15 14 14 16 17 19 20 21 23 24 26 27 28 30 31 31 32 32 32 33 34 35 35 36 37 37 38 38 38 38 37 38 39 40 40 40 40 39 37 36 35 35 34
18 18 19 20 21 22 24 25 26 27 28 30 31 32 33 33 34 34 35 35 36 37 38 39 39 40 40 40 39 39 40 40 40 41 41 40 40 39 38 36 35 34 34
23 24 25 25 26 27 28 28 29 30 31 33 34 35 35 36 36 37 37 38 39 40 41 41 42 41 41 41 41 41 42 42 42 41 41 40 39 39 38 36 35 34 34
26 27 28 29 30 31 31 31 32 32 33 35 36 37 38 38 39 39 40 41 42 43 43 44 44 44 44 44 45 44 44 43 43 42 42 41 40 38 37 36 35 34 34
28 30 31 32 32 33 34 34 35 34 35 37 38 39 40 41 41 42 43 44 45 46 46 46 46 47 46 47 47 47 46 45 44 43 43 42 40 38 37 35 35 35 34
31 32 33 34 35 35 36 37 37 38 39 39 40 41 43 44 44 46 47 47 48 48 48 48 48 48 49 49 49 49 48 47 45 44 43 41 40 38 37 36 36 35 34
32 33 34 36 37 38 38 39 40 41 42 42 43 44 46 47 48 49 50 50 50 50 50 51 51 51 51 51 51 50 49 48 46 44 42 41 39 38 37 36 35 34 34
33 34 36 37 38 39 40 41 42 43 44 45 46 47 49 49 50 51 52 53 53 53 53 54 54 54 53 53 52 51 50 48 46 44 42 40 39 38 37 36 35 34 34
34 36 37 38 39 40 41 42 43 44 46 47 49 50 51 52 53 54 55 55 56 57 57 57 57 56 54 53 52 51 50 49 46 43 41 39 38 37 35 35 34 34 33
36 37 38 39 40 41 42 43 45 46 48 49 51 52 54 55 56 57 58 59 59 59 60 59 59 58 56 53 52 51 49 47 46 43 40 39 38 36 35 34 33 32 31
Wind_Direction
171 173 168 159 161 164 170 188 204 223 310 336 337 352 356 354 348 346 346 348 348 345 342 336 330 326 323 319 312 306 300 295 289 284 281 277 273 270 268 265 262 259 255
166 166 159 155 150 150 161 162 168 192 286 317 329 345 351 348 348 350 348 347 344 340 339 335 331 326 323 321 317 312 307 301 295 289 285 282 277 273 270 267 264 262 259
157 161 156 153 150 148 149 154 165 174 261 321 337 345 347 350 350 346 343 340 336 335 334 330 327 324 319 315 312 309 306 304 300 295 290 285 281 278 274 271 268 265 262
139 144 144 146 147 148 155 167 175 207 293 316 334 342 345 344 343 340 339 338 335 332 330 328 325 321 316 311 307 305 303 302 300 297 293 288 284 282 279 274 271 268 264
125 135 143 143 144 153 163 186 221 270 298 313 326 338 344 345 344 343 341 339 337 335 334 333 330 326 322 318 313 308 304 301 298 296 292 289 286 283 281 277 273 269 267
106 118 127 130 141 170 205 237 260 291 304 314 329 339 344 345 344 343 341 339 339 338 337 335 332 329 326 322 318 314 310 305 300 296 292 289 286 284 282 279 276 272 268
103 113 124 138 166 213 242 259 277 294 303 316 329 338 341 342 341 340 339 340 340 339 336 333 331 329 327 324 321 318 314 310 306 301 296 292 288 285 282 280 277 274 270
129 137 156 186 215 240 254 262 273 288 302 315 325 331 335 336 335 334 334 334 333 332 330 329 328 326 325 323 322 321 317 314 310 306 302 297 293 289 284 280 277 274 271
179 212 245 254 251 256 262 272 280 289 299 309 317 322 324 327 328 327 326 325 322 322 324 324 322 322 322 321 321 321 319 316 314 311 307 302 298 294 289 285 280 275 271
205 230 249 258 258 258 263 271 277 285 297 306 310 314 317 319 320 320 319 317 315 314 315 315 315 316 318 319 320 320 319 316 314 312 309 305 301 298 293 289 284 279 273
234 224 235 254 263 265 269 274 280 289 298 303 306 308 311 313 315 316 316 315 314 313 312 311 312 311 311 313 316 317 317 315 313 311 308 305 303 300 296 292 288 283 278
298 284 279 278 280 283 286 289 294 297 300 301 302 304 306 307 309 311 313 312 312 311 310 310 309 308 307 308 310 311 314 313 311 310 308 306 305 302 299 295 291 286 281
315 310 310 303 297 295 296 298 299 298 298 298 299 299 300 302 305 308 310 309 307 306 307 309 310 309 308 308 308 308 310 311 310 309 308 307 306 303 300 296 292 288 284
319 316 312 306 302 301 300 300 298 297 295 294 295 296 297 299 302 305 306 306 305 304 306 307 308 309 309 309 308 307 308 309 308 308 308 307 305 302 299 296 292 289 285
315 314 307 302 300 299 298 296 295 294 293 292 292 293 295 297 298 300 302 303 303 304 305 307 307 308 309 309 309 308 307 307 306 306 306 306 304 301 298 295 291 288 285
308 307 302 299 298 296 295 294 293 292 291 290 290 291 293 294 296 298 299 300 301 303 305 307 307 308 308 308 309 309 307 307 306 305 305 305 303 300 297 293 290 287 284
301 300 296 296 295 295 294 294 293 291 290 290 290 290 292 293 294 296 297 298 300 303 304 305 306 307 308 308 308 308 308 307 306 306 304 303 302 299 296 293 290 286 282
299 298 295 293 292 293 293 294 293 292 291 291 290 291 291 292 294 296 297 299 300 302 304 304 305 306 307 307 307 307 308 307 306 306 304 302 300 297 294 291 289 286 282
296 295 294 292 290 291 292 293 293 292 292 292 291 291 292 293 294 296 298 298 300 301 302 303 304 305 306 306 306 306 307 306 306 305 304 302 299 296 293 290 288 284 281
292 292 292 292 292 292 292 292 292 291 291 291 291 292 293 294 295 296 297 297 299 301 302 302 304 304 304 304 304 304 306 306 305 305 303 300 297 294 291 288 286 283 279
291 291 291 291 292 292 293 292 291 291 291 291 291 292 292 293 294 294 295 296 297 299 300 301 302 303 303 303 303 304 304 304 304 303 301 298 295 292 289 286 285 283 279
291 291 292 292 291 291 291 291 290 291 290 290 290 291 291 292 292 292 293 295 296 297 298 299 300 301 301 302 302 303 302 302 302 301 298 296 293 290 287 285 284 283 280
290 290 290 290 289 289 289 289 290 289 290 290 289 289 289 290 291 292 292 293 295 296 297 297 298 298 299 299 300 300 300 300 299 298 296 294 291 288 285 283 283 281 279
291 291 290 290 289 289 290 290 290 289 289 289 289 289 289 289 290 291 292 293 294 294 295 295 295 296 296 297 297 296 296 296 296 295 294 292 289 286 283 282 282 280 280
293 292 291 291 290 290 290 290 290 289 289 289 289 290 290 289 289 291 291 291 292 292 292 293 293 293 294 293 293 292 292 293 292 292 291 289 287 285 283 281 281 281 281
294 293 293 292 292 291 290 290 289 289 289 289 289 289 289 289 289 289 289 290 290 290 290 291 290 290 290 289 288 288 287 287 288 288 287 286 285 283 283 282 281 280 279
Height
5862 5864 5867 5870 5872 5874 5874 5875 5876 5877 5876 5876 5876 5875 5874 5873 5872 5870 5869 5867 5866 5864 5862 5861 5860 5858 5857 5856 5855 5854 5853 5853 5852 5852 5851 5851 5851 5850 5850 5850 5851 5851 5852
5862 5865 5867 5870 5871 5873 5874 5875 5875 5875 5875 5875 5875 5874 5873 5871 5870 5868 5867 5865 5864 5862 5860 5859 5857 5856 5855 5854 5852 5851 5850 5850 5849 5848 5847 5847 5847 5846 5846 5846 5846 5846 5846
5862 5865 5868 5869 5871 5873 5873 5874 5874 5874 5874 5874 5873 5872 5871 5870 5868 5867 5865 5863 5861 5860 5858 5857 5855 5854 5852 5851 5850 5849 5847 5846 5846 5845 5844 5843 5842 5842 5842 5841 5841 5841 5841
5864 5866 5868 5870 5871 5872 5873 5873 5873 5873 5873 5872 5871 5870 5869 5868 5867 5865 5863 5861 5859 5857 5855 5854 5852 5851 5849 5848 5846 5845 5844 5842 5842 5841 5840 5839 5838 5837 5837 5837 5836 5835 5835
5866 5867 5869 5870 5871 5872 5872 5872 5872 5872 5871 5871 5870 5869 5868 5866 5865 5863 5861 5859 5857 5855 5853 5851 5849 5847 5846 5844 5843 5841 5840 5838 5837 5836 5835 5834 5833 5832 5832 5831 5831 5830 5830
5868 5868 5869 5870 5871 5871 5871 5871 5871 5870 5870 5869 5868 5867 5865 5864 5862 5861 5859 5857 5855 5852 5850 5848 5846 5844 5842 5840 5838 5837 5835 5833 5832 5830 5829 5828 5827 5826 5825 5824 5824 5823 5823
5868 5869 5869 5870 5870 5870 5870 5869 5869 5869 5868 5867 5866 5865 5863 5861 5860 5858 5856 5854 5852 5850 5848 5845 5843 5841 5839 5837 5834 5832 5830 5828 5826 5824 5822 5821 5819 5818 5817 5817 5816 5815 5815
5868 5868 5868 5868 5869 5869 5868 5868 5867 5867 5866 5865 5864 5862 5861 5859 5857 5856 5854 5852 5850 5847 5845 5843 5840 5838 5835 5832 5830 5827 5824 5822 5819 5817 5815 5813 5811 5810 5809 5808 5807 5806 5806
5867 5867 5866 5867 5867 5867 5866 5866 5865 5865 5864 5863 5861 5860 5858 5857 5855 5853 5851 5849 5846 5844 5842 5839 5836 5834 5831 5828 5825 5822 5819 5816 5813 5810 5807 5805 5802 5800 5799 5797 5797 5797 5796
5865 5865 5864 5864 5865 5864 5864 5863 5863 5862 5861 5860 5858 5857 5855 5853 5851 5849 5847 5845 5842 5840 5837 5835 5832 5829 5826 5823 5820 5816 5813 5809 5806 5803 5800 5797 5794 5791 5789 5787 5785 5785 5785
5862 5862 5862 5862 5862 5861 5861 5860 5859 5858 5857 5856 5855 5853 5851 5849 5847 5845 5842 5840 5837 5834 5832 5829 5826 5823 5820 5817 5814 5810 5806 5803 5799 5795 5792 5789 5785 5782 5779 5776 5774 5772 5772
5859 5859 5858 5858 5858 5857 5856 5856 5855 5854 5853 5852 5850 5849 5847 5845 5842 5840 5837 5834 5832 5829 5826 5823 5820 5817 5814 5810 5807 5803 5799 5795 5791 5787 5783 5780 5776 5772 5768 5765 5763 5760 5759
5855 5854 5854 5853 5853 5853 5852 5851 5850 5849 5848 5847 5845 5844 5842 5840 5837 5834 5832 5829 5826 5823 5820 5816 5813 5810 5806 5803 5799 5795 5791 5787 5783 5778 5774 5770 5766 5762 5758 5755 5752 5749 5748
5851 5850 5849 5849 5848 5848 5847 5846 5845 5844 5843 5842 5840 5838 5836 5834 5831 5828 5826 5822 5819 5816 5812 5809 5806 5802 5798 5794 5791 5787 5782 5778 5773 5769 5765 5760 5756 5752 5748 5745 5742 5739 5737
5846 5845 5845 5844 5843 5843 5842 5841 5840 5839 5838 5836 5834 5832 5830 5827 5825 5822 5819 5815 5812 5808 5805 5801 5798 5794 5790 5786 5782 5777 5773 5768 5764 5759 5755 5750 5746 5741 5738 5734 5731 5728 5726
5842 5841 5840 5839 5838 5838 5837 5836 5835 5833 5832 5830 5828 5825 5823 5820 5817 5814 5811 5807 5804 5800 5797 5793 5789 5785 5781 5777 5772 5768 5763 5758 5753 5749 5744 5740 5735 5731 5727 5724 5721 5718 5715
5837 5837 5836 5835 5834 5833 5831 5830 5828 5827 5825 5823 5820 5818 5815 5812 5809 5806 5802 5799 5795 5791 5788 5784 5780 5776 5771 5767 5762 5757 5753 5748 5743 5738 5734 5729 5724 5720 5716 5713 5710 5707 5704
5832 5831 5831 5830 5828 5827 5825 5823 5821 5819 5817 5814 5812 5809 5806 5803 5800 5797 5793 5789 5785 5782 5778 5774 5770 5765 5761 5756 5751 5747 5742 5737 5732 5727 5722 5718 5713 5709 5705 5702 5699 5696 5694
5826 5825 5824 5822 5821 5819 5817 5815 5813 5810 5808 5805 5802 5800 5797 5793 5790 5786 5783 5779 5775 5771 5767 5763 5758 5754 5749 5744 5740 5735 5731 5726 5720 5716 5711 5706 5702 5698 5694 5691 5689 5686 5683
5819 5818 5816 5814 5812 5810 5808 5806 5804 5801 5799 5796 5793 5790 5786 5783 5779 5775 5772 5768 5764 5760 5756 5751 5746 5742 5738 5733 5728 5723 5719 5714 5709 5704 5699 5694 5690 5686 5682 5680 5677 5675 5672
5811 5809 5807 5805 5803 5801 5798 5796 5794 5791 5789 5785 5782 5779 5775 5771 5767 5764 5760 5756 5751 5747 5743 5739 5734 5729 5725 5720 5715 5710 5706 5701 5696 5691 5686 5682 5678 5674 5671 5668 5666 5663 5661
5802 5800 5797 5795 5793 5791 5788 5785 5783 5780 5777 5774 5770 5767 5763 5759 5755 5751 5747 5743 5739 5734 5730 5726 5721 5716 5711 5706 5702 5697 5692 5687 5683 5679 5674 5669 5665 5662 5659 5656 5654 5652 5650
5793 5791 5788 5786 5783 5780 5777 5775 5772 5768 5765 5761 5757 5753 5750 5746 5741 5737 5733 5729 5725 5720 5716 5711 5707 5702 5697 5692 5688 5683 5678 5673 5669 5666 5661 5657 5653 5650 5647 5645 5642 5640 5639
5784 5781 5778 5775 5772 5769 5765 5762 5759 5755 5751 5747 5743 5739 5735 5731 5727 5722 5718 5714 5709 5705 5700 5696 5691 5687 5683 5678 5673 5668 5664 5660 5656 5652 5648 5645 5641 5638 5636 5633 5631 5629 5627
5773 5770 5767 5764 5760 5757 5753 5750 5746 5742 5738 5733 5729 5725 5720 5716 5711 5707 5703 5698 5694 5688 5684 5680 5675 5670 5667 5662 5657 5653 5649 5646 5642 5638 5636 5632 5629 5627 5624 5622 5620 5618 5616
5762 5758 5755 5752 5748 5745 5741 5737 5733 5728 5724 5720 5715 5710 5705 5700 5695 5691 5687 5681 5676 5672 5666 5662 5657 5653 5649 5645 5641 5638 5634 5631 5628 5625 5623 5620 5617 5615 5613 5611 5609 5607 5605